When you browse on this site, cookies collect data to enhance your experience and personalize the content and advertising you see.
Visit our Privacy Policy to learn more. By continuing to use the site, you agree to this use of cookies and data.
  • In Hungary
  • List of Countries
  • For 7 days
  • Water Temperature
  • Satellite Maps
  • Weather Map
  • News
  • Weather Widgets
  • user-avatar
    Login

    Hourly Weather Boguszów-Gorce

    Today, 21 January, Monday

    Time Temperature Precipitation Wind Pressure Humidity
    00:00 -9°C° 0 mm 1 mps 715 mmHg 76%
    01:00 -9°C° 0 mm 1 mps 715 mmHg 76%
    02:00 -9°C° 0 mm 1 mps 715 mmHg 75%
    03:00 -9°C° 0 mm 1 mps 715 mmHg 75%
    04:00 -9°C° 0 mm 0 mps 715 mmHg 74%
    05:00 -9°C° 0 mm 0 mps 715 mmHg 73%
    06:00 -10°C° 0 mm 0 mps 715 mmHg 73%
    07:00 -10°C° 0 mm 0 mps 715 mmHg 72%
    08:00 -8°C° 0 mm 0 mps 715 mmHg 70%
    09:00 -7°C° 0 mm 0 mps 716 mmHg 69%
    10:00 -6°C° 0 mm 0 mps 716 mmHg 67%
    11:00 -5°C° 0 mm 0 mps 716 mmHg 65%
    12:00 -2°C° 0 mm 1 mps 716 mmHg 62%
    13:00 -1°C° 0 mm 1 mps 716 mmHg 60%
    14:00 -2°C° 0 mm 1 mps 715 mmHg 63%
    15:00 -3°C° 0 mm 1 mps 715 mmHg 66%
    16:00 -4°C° 0 mm 1 mps 714 mmHg 69%
    17:00 -6°C° 0 mm 1 mps 714 mmHg 70%
    18:00 -7°C° 0 mm 1 mps 714 mmHg 71%
    19:00 -8°C° 0 mm 1 mps 714 mmHg 72%
    20:00 -8°C° 0 mm 1 mps 713 mmHg 71%
    21:00 -8°C° 0 mm 1 mps 713 mmHg 70%
    22:00 -8°C° 0 mm 1 mps 713 mmHg 69%
    23:00 -8°C° 0 mm 1 mps 713 mmHg 69%

    Tomorrow, 22 January, Tuesday

    Time Temperature Precipitation Wind Pressure Humidity
    00:00 -8°C° 0 mm 1 mps 712 mmHg 69%
    01:00 -9°C° 0 mm 2 mps 712 mmHg 69%
    02:00 -8°C° 0 mm 1 mps 712 mmHg 70%
    03:00 -8°C° 0 mm 1 mps 711 mmHg 72%
    04:00 -8°C° 0 mm 1 mps 711 mmHg 73%
    05:00 -8°C° 0 mm 1 mps 711 mmHg 75%
    06:00 -9°C° 0 mm 1 mps 710 mmHg 76%
    07:00 -9°C° 0 mm 1 mps 710 mmHg 78%
    08:00 -8°C° 0 mm 1 mps 710 mmHg 76%
    09:00 -7°C° 0 mm 1 mps 710 mmHg 75%
    10:00 -6°C° 0 mm 1 mps 710 mmHg 74%
    11:00 -4°C° 0 mm 1 mps 710 mmHg 71%
    12:00 -3°C° 0 mm 1 mps 709 mmHg 68%
    13:00 -2°C° 0 mm 1 mps 709 mmHg 65%
    14:00 -3°C° 0 mm 1 mps 708 mmHg 68%
    15:00 -4°C° 0 mm 1 mps 708 mmHg 70%
    16:00 -4°C° 0 mm 1 mps 707 mmHg 72%
    17:00 -6°C° 0 mm 1 mps 707 mmHg 73%
    18:00 -7°C° 0 mm 1 mps 706 mmHg 73%
    19:00 -8°C° 0 mm 1 mps 706 mmHg 74%
    20:00 -8°C° 0 mm 1 mps 706 mmHg 74%
    21:00 -8°C° 0 mm 1 mps 705 mmHg 74%
    22:00 -8°C° 0 mm 1 mps 705 mmHg 75%
    23:00 -8°C° 0 mm 1 mps 705 mmHg 75%

    Day after tomorrow, 23 January, Wednesday

    Time Temperature Precipitation Wind Pressure Humidity
    00:00 -9°C° 0 mm 1 mps 704 mmHg 75%
    01:00 -9°C° 0 mm 1 mps 704 mmHg 75%
    02:00 -9°C° 0 mm 1 mps 704 mmHg 75%
    03:00 -9°C° 0 mm 1 mps 703 mmHg 75%
    04:00 -9°C° 0 mm 1 mps 703 mmHg 75%
    05:00 -9°C° 0 mm 1 mps 703 mmHg 77%
    06:00 -9°C° 0 mm 1 mps 703 mmHg 79%
    07:00 -9°C° 0 mm 1 mps 703 mmHg 80%
    08:00 -8°C° 0 mm 1 mps 703 mmHg 80%
    09:00 -8°C° 0 mm 2 mps 703 mmHg 80%
    10:00 -8°C° 0 mm 2 mps 703 mmHg 80%
    11:00 -7°C° 0 mm 2 mps 703 mmHg 78%
    12:00 -7°C° 0 mm 3 mps 703 mmHg 76%
    13:00 -6°C° 0 mm 3 mps 703 mmHg 74%
    14:00 -7°C° 0 mm 3 mps 703 mmHg 77%
    15:00 -7°C° 0 mm 2 mps 703 mmHg 80%
    16:00 -8°C° 0 mm 2 mps 703 mmHg 82%
    17:00 -8°C° 0 mm 2 mps 703 mmHg 85%
    18:00 -9°C° 0 mm 2 mps 704 mmHg 88%
    19:00 -10°C° 0 mm 2 mps 704 mmHg 90%
    20:00 -10°C° 0 mm 2 mps 704 mmHg 91%
    21:00 -10°C° 0 mm 2 mps 704 mmHg 91%
    22:00 -10°C° 0 mm 2 mps 705 mmHg 92%
    23:00 -10°C° 0 mm 2 mps 705 mmHg 92%

    24 January, Thursday

    Time Temperature Precipitation Wind Pressure Humidity
    00:00 -10°C° 0 mm 2 mps 705 mmHg 93%
    01:00 -12°C° 0 mm 2 mps 705 mmHg 93%
    02:00 -12°C° 0 mm 2 mps 706 mmHg 93%
    03:00 -12°C° 0 mm 2 mps 706 mmHg 93%
    04:00 -12°C° 0 mm 2 mps 706 mmHg 93%
    05:00 -12°C° 0 mm 2 mps 706 mmHg 93%
    06:00 -12°C° 0 mm 2 mps 707 mmHg 93%
    07:00 -12°C° 0 mm 2 mps 707 mmHg 92%
    08:00 -10°C° 0 mm 2 mps 708 mmHg 91%
    09:00 -9°C° 0 mm 2 mps 708 mmHg 89%
    10:00 -8°C° 0 mm 2 mps 709 mmHg 87%
    11:00 -8°C° 0 mm 2 mps 709 mmHg 85%
    12:00 -7°C° 0 mm 2 mps 709 mmHg 82%
    13:00 -6°C° 0 mm 2 mps 709 mmHg 80%
    14:00 -6°C° 0 mm 2 mps 709 mmHg 81%
    15:00 -7°C° 0 mm 2 mps 710 mmHg 82%
    16:00 -7°C° 0 mm 2 mps 710 mmHg 83%
    17:00 -8°C° 0 mm 2 mps 710 mmHg 84%
    18:00 -7°C° 0 mm 1 mps 710 mmHg 86%
    19:00 -8°C° 0 mm 1 mps 710 mmHg 87%
    20:00 -9°C° 0 mm 1 mps 711 mmHg 87%
    21:00 -9°C° 0 mm 1 mps 711 mmHg 88%
    22:00 -9°C° 0 mm 1 mps 711 mmHg 88%
    23:00 -9°C° 0 mm 0 mps 711 mmHg 89%

    25 January, Friday

    Time Temperature Precipitation Wind Pressure Humidity
    00:00 -9°C° 0 mm 0 mps 711 mmHg 89%
    01:00 -10°C° 0 mm 0 mps 711 mmHg 89%
    02:00 -10°C° 0 mm 0 mps 711 mmHg 89%
    03:00 -10°C° 0 mm 0 mps 711 mmHg 90%
    04:00 -10°C° 0 mm 0 mps 711 mmHg 90%
    05:00 -9°C° 0 mm 0 mps 711 mmHg 90%
    06:00 -9°C° 0 mm 1 mps 712 mmHg 90%
    07:00 -9°C° 0 mm 1 mps 712 mmHg 90%
    08:00 -8°C° 0 mm 1 mps 712 mmHg 88%
    09:00 -7°C° 0 mm 1 mps 713 mmHg 86%
    10:00 -7°C° 0 mm 1 mps 713 mmHg 85%
    11:00 -6°C° 0 mm 1 mps 713 mmHg 82%
    12:00 -6°C° 0 mm 1 mps 713 mmHg 80%
    13:00 -4°C° 0 mm 1 mps 713 mmHg 77%
    14:00 -4°C° 0 mm 1 mps 712 mmHg 78%
    15:00 -4°C° 0 mm 1 mps 712 mmHg 80%
    16:00 -6°C° 0 mm 0 mps 712 mmHg 81%
    17:00 -7°C° 0 mm 0 mps 711 mmHg 82%
    18:00 -8°C° 0 mm 1 mps 711 mmHg 84%
    19:00 -8°C° 0 mm 1 mps 711 mmHg 85%
    20:00 -9°C° 0 mm 1 mps 711 mmHg 85%
    21:00 -10°C° 0 mm 2 mps 710 mmHg 84%
    22:00 -10°C° 0 mm 2 mps 710 mmHg 83%
    23:00 -9°C° 0 mm 2 mps 710 mmHg 81%

    26 January, Saturday

    Time Temperature Precipitation Wind Pressure Humidity
    00:00 -10°C° 0 mm 3 mps 709 mmHg 78%
    01:00 -10°C° 0 mm 3 mps 709 mmHg 76%
    02:00 -9°C° 0.1 mm 3 mps 708 mmHg 78%
    03:00 -9°C° 0.1 mm 4 mps 708 mmHg 79%
    04:00 -8°C° 0.1 mm 4 mps 707 mmHg 81%
    05:00 -8°C° 0.3 mm 4 mps 707 mmHg 84%
    06:00 -8°C° 0.3 mm 4 mps 706 mmHg 86%
    07:00 -7°C° 0.3 mm 4 mps 706 mmHg 89%
    08:00 -5°C° 0.1 mm 3 mps 706 mmHg 89%
    09:00 -5°C° 0.1 mm 3 mps 706 mmHg 89%
    10:00 -4°C° 0.1 mm 3 mps 706 mmHg 89%
    11:00 -2°C° 0 mm 3 mps 706 mmHg 89%
    12:00 -1°C° 0 mm 3 mps 706 mmHg 89%
    13:00 0°C° 0 mm 3 mps 706 mmHg 89%
    14:00 -1°C° 0 mm 3 mps 706 mmHg 90%
    15:00 -1°C° 0 mm 2 mps 705 mmHg 92%
    16:00 -1°C° 0 mm 2 mps 705 mmHg 93%
    17:00 -2°C° 0 mm 2 mps 705 mmHg 93%
    18:00 -2°C° 0 mm 2 mps 705 mmHg 93%
    19:00 -2°C° 0 mm 2 mps 704 mmHg 94%
    20:00 -2°C° 0.1 mm 2 mps 704 mmHg 94%
    21:00 -2°C° 0.1 mm 3 mps 704 mmHg 94%
    22:00 -1°C° 0.1 mm 3 mps 703 mmHg 93%
    23:00 -1°C° 0 mm 3 mps 703 mmHg 93%
    Show more